When you browse on this site, cookies collect data to enhance your experience and personalize the content and advertising you see.
Visit our Privacy Policy to learn more. By continuing to use the site, you agree to this use of cookies and data.
  • In Lithuania
  • List of Countries
  • For 7 days
  • Water Temperature
  • Weather Map
  • Weather Widgets
  • user-avatar
    Login

    Hourly Weather Sretensk

    Today, 19 September, Thursday

    Time Temperature Precipitation Wind Pressure Humidity
    00:00 +5°C° 0 mm 1 mps 712 mmHg 83%
    01:00 +5°C° 0 mm 1 mps 712 mmHg 83%
    02:00 +5°C° 0 mm 1 mps 712 mmHg 84%
    03:00 +5°C° 0 mm 1 mps 712 mmHg 86%
    04:00 +4°C° 0 mm 1 mps 712 mmHg 87%
    05:00 +4°C° 0 mm 1 mps 712 mmHg 89%
    06:00 +6°C° 0 mm 1 mps 712 mmHg 83%
    07:00 +7°C° 0 mm 1 mps 712 mmHg 77%
    08:00 +9°C° 0 mm 1 mps 712 mmHg 71%
    09:00 +10°C° 0 mm 2 mps 712 mmHg 65%
    10:00 +13°C° 0 mm 2 mps 712 mmHg 60%
    11:00 +16°C° 0 mm 3 mps 711 mmHg 54%
    12:00 +16°C° 0 mm 3 mps 711 mmHg 54%
    13:00 +17°C° 0 mm 4 mps 711 mmHg 53%
    14:00 +16°C° 0 mm 5 mps 710 mmHg 53%
    15:00 +15°C° 0.2 mm 4 mps 710 mmHg 61%
    16:00 +14°C° 0.2 mm 3 mps 710 mmHg 70%
    17:00 +14°C° 0.2 mm 2 mps 710 mmHg 78%
    18:00 +13°C° 0.2 mm 2 mps 711 mmHg 81%
    19:00 +12°C° 0.2 mm 2 mps 711 mmHg 85%
    20:00 +10°C° 0.2 mm 2 mps 711 mmHg 89%
    21:00 +9°C° 0 mm 2 mps 711 mmHg 89%
    22:00 +8°C° 0 mm 1 mps 712 mmHg 90%
    23:00 +7°C° 0 mm 1 mps 712 mmHg 90%

    Tomorrow, 20 September, Friday

    Time Temperature Precipitation Wind Pressure Humidity
    00:00 +6°C° 0 mm 1 mps 712 mmHg 90%
    01:00 +6°C° 0 mm 1 mps 712 mmHg 90%
    02:00 +5°C° 0 mm 1 mps 712 mmHg 91%
    03:00 +5°C° 0 mm 1 mps 713 mmHg 91%
    04:00 +4°C° 0 mm 1 mps 713 mmHg 91%
    05:00 +4°C° 0 mm 1 mps 713 mmHg 91%
    06:00 +5°C° 0 mm 1 mps 714 mmHg 88%
    07:00 +7°C° 0 mm 1 mps 714 mmHg 84%
    08:00 +8°C° 0 mm 1 mps 715 mmHg 80%
    09:00 +10°C° 0 mm 1 mps 715 mmHg 69%
    10:00 +10°C° 0 mm 2 mps 716 mmHg 58%
    11:00 +13°C° 0 mm 2 mps 716 mmHg 47%
    12:00 +13°C° 0 mm 2 mps 716 mmHg 44%
    13:00 +14°C° 0 mm 2 mps 716 mmHg 42%
    14:00 +15°C° 0 mm 2 mps 716 mmHg 39%
    15:00 +14°C° 0 mm 2 mps 716 mmHg 43%
    16:00 +13°C° 0 mm 2 mps 716 mmHg 47%
    17:00 +13°C° 0 mm 1 mps 716 mmHg 51%
    18:00 +11°C° 0 mm 1 mps 716 mmHg 56%
    19:00 +9°C° 0 mm 1 mps 716 mmHg 61%
    20:00 +6°C° 0 mm 0 mps 716 mmHg 66%
    21:00 +5°C° 0 mm 0 mps 716 mmHg 67%
    22:00 +6°C° 0 mm 1 mps 717 mmHg 67%
    23:00 +6°C° 0 mm 1 mps 717 mmHg 68%

    Day after tomorrow, 21 September, Saturday

    Time Temperature Precipitation Wind Pressure Humidity
    00:00 +5°C° 0 mm 1 mps 717 mmHg 70%
    01:00 +5°C° 0 mm 1 mps 716 mmHg 72%
    02:00 +5°C° 0 mm 1 mps 716 mmHg 74%
    03:00 +5°C° 0 mm 1 mps 716 mmHg 76%
    04:00 +5°C° 0 mm 1 mps 716 mmHg 78%
    05:00 +5°C° 0 mm 1 mps 716 mmHg 80%
    06:00 +6°C° 0 mm 1 mps 716 mmHg 76%
    07:00 +8°C° 0 mm 1 mps 716 mmHg 72%
    08:00 +9°C° 0 mm 1 mps 716 mmHg 67%
    09:00 +11°C° 0 mm 1 mps 716 mmHg 62%
    10:00 +13°C° 0 mm 2 mps 716 mmHg 57%
    11:00 +15°C° 0 mm 2 mps 715 mmHg 52%
    12:00 +16°C° 0 mm 2 mps 715 mmHg 51%
    13:00 +17°C° 0 mm 2 mps 715 mmHg 50%
    14:00 +18°C° 0 mm 2 mps 715 mmHg 49%
    15:00 +18°C° 0 mm 2 mps 715 mmHg 53%
    16:00 +18°C° 0 mm 1 mps 715 mmHg 57%
    17:00 +18°C° 0 mm 1 mps 716 mmHg 61%
    18:00 +15°C° 0 mm 1 mps 716 mmHg 67%
    19:00 +12°C° 0 mm 1 mps 716 mmHg 74%
    20:00 +10°C° 0 mm 1 mps 716 mmHg 81%
    21:00 +10°C° 0 mm 1 mps 716 mmHg 82%
    22:00 +9°C° 0 mm 1 mps 716 mmHg 83%
    23:00 +9°C° 0 mm 1 mps 716 mmHg 85%

    22 September, Sunday

    Time Temperature Precipitation Wind Pressure Humidity
    00:00 +9°C° 0 mm 1 mps 716 mmHg 86%
    01:00 +8°C° 0 mm 1 mps 716 mmHg 88%
    02:00 +8°C° 0 mm 1 mps 716 mmHg 89%
    03:00 +8°C° 0 mm 1 mps 717 mmHg 90%
    04:00 +8°C° 0 mm 1 mps 717 mmHg 90%
    05:00 +8°C° 0 mm 1 mps 717 mmHg 91%
    06:00 +9°C° 0 mm 1 mps 717 mmHg 85%
    07:00 +11°C° 0 mm 1 mps 717 mmHg 80%
    08:00 +12°C° 0 mm 1 mps 717 mmHg 74%
    09:00 +15°C° 0 mm 1 mps 717 mmHg 67%
    10:00 +17°C° 0 mm 2 mps 717 mmHg 60%
    11:00 +19°C° 0 mm 2 mps 717 mmHg 52%
    12:00 +20°C° 0 mm 3 mps 717 mmHg 50%
    13:00 +21°C° 0 mm 3 mps 716 mmHg 48%
    14:00 +22°C° 0 mm 4 mps 716 mmHg 47%
    15:00 +21°C° 0 mm 3 mps 716 mmHg 51%
    16:00 +20°C° 0 mm 3 mps 716 mmHg 56%
    17:00 +20°C° 0 mm 3 mps 715 mmHg 61%
    18:00 +18°C° 0 mm 2 mps 715 mmHg 68%
    19:00 +16°C° 0 mm 2 mps 715 mmHg 75%
    20:00 +14°C° 0 mm 2 mps 715 mmHg 82%
    21:00 +13°C° 0 mm 1 mps 715 mmHg 83%
    22:00 +13°C° 0 mm 1 mps 715 mmHg 85%
    23:00 +12°C° 0 mm 1 mps 715 mmHg 86%

    23 September, Monday

    Time Temperature Precipitation Wind Pressure Humidity
    00:00 +11°C° 0 mm 1 mps 715 mmHg 87%
    01:00 +11°C° 0 mm 1 mps 716 mmHg 89%
    02:00 +10°C° 0 mm 1 mps 716 mmHg 90%
    03:00 +10°C° 0 mm 1 mps 716 mmHg 90%
    04:00 +9°C° 0 mm 1 mps 717 mmHg 90%
    05:00 +8°C° 0 mm 1 mps 717 mmHg 90%
    06:00 +9°C° 0 mm 1 mps 718 mmHg 83%
    07:00 +10°C° 0 mm 1 mps 718 mmHg 75%
    08:00 +11°C° 0 mm 1 mps 719 mmHg 67%
    09:00 +13°C° 0 mm 1 mps 719 mmHg 56%
    10:00 +15°C° 0 mm 1 mps 719 mmHg 45%
    11:00 +18°C° 0 mm 1 mps 719 mmHg 34%
    12:00 +18°C° 0 mm 1 mps 719 mmHg 32%
    13:00 +17°C° 0 mm 2 mps 718 mmHg 31%
    14:00 +18°C° 0 mm 2 mps 718 mmHg 29%
    15:00 +17°C° 0 mm 2 mps 718 mmHg 34%
    16:00 +16°C° 0 mm 2 mps 718 mmHg 39%
    17:00 +15°C° 0 mm 1 mps 717 mmHg 44%
    18:00 +13°C° 0 mm 1 mps 717 mmHg 47%
    19:00 +11°C° 0 mm 1 mps 717 mmHg 51%
    20:00 +9°C° 0 mm 1 mps 717 mmHg 54%
    21:00 +9°C° 0 mm 1 mps 717 mmHg 55%
    22:00 +8°C° 0 mm 1 mps 717 mmHg 56%
    23:00 +8°C° 0 mm 1 mps 717 mmHg 57%

    24 September, Tuesday

    Time Temperature Precipitation Wind Pressure Humidity
    00:00 +8°C° 0 mm 1 mps 717 mmHg 59%
    01:00 +7°C° 0 mm 1 mps 717 mmHg 60%
    02:00 +7°C° 0 mm 1 mps 716 mmHg 62%
    03:00 +7°C° 0 mm 1 mps 716 mmHg 63%
    04:00 +7°C° 0 mm 1 mps 716 mmHg 64%
    05:00 +7°C° 0 mm 1 mps 716 mmHg 65%
    06:00 +8°C° 0 mm 1 mps 716 mmHg 62%
    07:00 +10°C° 0 mm 1 mps 716 mmHg 59%
    08:00 +11°C° 0 mm 1 mps 715 mmHg 56%
    09:00 +14°C° 0 mm 1 mps 715 mmHg 53%
    10:00 +16°C° 0 mm 1 mps 715 mmHg 51%
    11:00 +18°C° 0 mm 2 mps 715 mmHg 48%
    12:00 +19°C° 0 mm 2 mps 714 mmHg 47%
    13:00 +20°C° 0 mm 2 mps 714 mmHg 47%
    14:00 +21°C° 0 mm 2 mps 714 mmHg 47%
    15:00 +20°C° 0 mm 2 mps 713 mmHg 53%
    16:00 +20°C° 0 mm 1 mps 713 mmHg 59%
    17:00 +20°C° 0 mm 1 mps 713 mmHg 65%
    18:00 +18°C° 0 mm 1 mps 713 mmHg 71%
    19:00 +15°C° 0 mm 1 mps 713 mmHg 77%
    20:00 +13°C° 0 mm 1 mps 712 mmHg 83%
    21:00 +12°C° 0 mm 0 mps 713 mmHg 84%
    22:00 +11°C° 0 mm 0 mps 713 mmHg 86%
    23:00 +11°C° 0 mm 0 mps 713 mmHg 87%
    Show more